This demonstration page uses our WeatherBlox Daily Observations layout. Learn more.

Left ArrowRight Arrow

39.08367, -84.50855

Hourly Observations for February 1, 2016

Temp ( °F °C ) Dew Point ( °F °C ) Humidity (%) Winds ( mph kmh ) Pressure ( in mb ) Visibility ( mi km ) Precip ( " mm )
12:53 am 00:53 Cloudy 57 13.9 49 9.4 74 74 WNW 13 20 29.80 1009 10 16 N/A
1:53 am 01:53 Cloudy 52 11.1 45 7.2 77 77 NNW 8 13 29.83 1010 10 16 N/A
2:53 am 02:53 Cloudy 50 10 40 4.4 68 68 NW 13 20 29.87 1012 10 16 N/A
3:53 am 03:53 Cloudy 47 8.3 39 3.9 74 74 NNW 8 13 29.90 1012 10 16 N/A
4:53 am 04:53 Cloudy 45 7.2 36 2.2 71 71 N 9 15 29.92 1013 10 16 N/A
5:53 am 05:53 Cloudy 44 6.7 36 2.2 73 73 VRB 6 9 29.94 1014 9 14 N/A
6:53 am 06:53 Cloudy 43 6.1 36 2.2 76 76 N 7 11 29.97 1015 9 14 N/A
7:53 am 07:53 Partly Cloudy 41 5 35 1.7 79 79 N 8 13 29.98 1015 7 11 N/A
8:53 am 08:53 Hazy 42 5.6 35 1.7 76 76 N 6 9 30.01 1016 6 10 N/A
9:53 am 09:53 Cloudy 43 6.1 35 1.7 74 74 N 5 7 30.02 1017 7 11 N/A
10:53 am 10:53 Mostly Cloudy 44 6.7 35 1.7 71 71 NE 8 13 30.03 1017 8 13 N/A
11:53 am 11:53 Mostly Cloudy 45 7.2 34 1.1 66 66 N N/A 30.04 1017 10 16 N/A
12:53 pm 12:53 Sunny 46 7.8 34 1.1 63 63 N N/A 30.04 1017 10 16 N/A
1:53 pm 13:53 Cloudy 47 8.3 32 undefined 56 56 N N/A 30.02 1017 10 16 N/A
2:53 pm 14:53 Sunny 50 10 33 0.6 52 52 N 5 7 30.01 1016 10 16 N/A
3:53 pm 15:53 Sunny 51 10.6 32 undefined 48 48 VRB 6 9 30.01 1016 10 16 N/A
4:53 pm 16:53 Sunny 50 10 31 -0.6 48 48 NNW 5 7 30.04 1017 10 16 N/A
5:53 pm 17:53 Sunny 45 7.2 32 undefined 61 61 N 8 13 30.05 1018 10 16 N/A
6:53 pm 18:53 Cloudy 63 17 48 9 59 59 SSW 13 20 29.71 1006 10 16 N/A
7:53 pm 19:53 Clear 36 2.2 31 -0.6 82 82 N N/A 30.10 1019 10 16 N/A
8:53 pm 20:53 Clear 35 1.7 30 -1.1 82 82 N N/A 30.11 1020 10 16 N/A
9:53 pm 21:53 Clear 32 undefined 30 -1.1 92 92 N N/A 30.13 1020 10 16 N/A
10:53 pm 22:53 Clear 31 -0.6 29 -1.7 92 92 N N/A 30.13 1020 10 16 N/A
11:53 pm 23:53 Clear 31 -0.6 29 -1.7 92 92 NNE 5 7 30.12 1020 10 16 N/A

Powered by AerisWeather